Regional Weather Roundup
Issued by NWS

Home | Current Version | Previous Version | Text Only | Print | Product List | Glossary Off
Versions: 1 2 3 4 5 6 7 8 9 10 11 12 13 14 15 16 17 18 19 20 21 22 23 24 25 26 27 28 29 30 31 32 33 34 35 36 37 38 39 40 41 42 43 44 45 46 47 48 49 50

000
ASUS43 KDTX 281010
RWRMI
MICHIGAN HOURLY REGIONAL WEATHER ROUNDUP
NATIONAL WEATHER SERVICE DETROIT/PONTIAC MI
600 AM EDT THU MAY 28 2015

NOTE: "FAIR" INDICATES FEW OR NO CLOUDS BELOW 12,000 FEET WITH NO
SIGNIFICANT WEATHER AND/OR OBSTRUCTION TO VISIBILITY.

MIZ047>049-052>055-059>063-066>070-074>076-081>083-281100-
SOUTHEAST LOWER MICHIGAN

CITY           SKY/WX    TMP DP  RH WIND       PRES   REMARKS
ADRIAN         CLEAR     53  52  96 N3        30.21R
ALMA           PTCLDY    55  55  99 CALM      30.18R
ANN ARBOR      PTCLDY    49  48  97 CALM      30.21R FOG
BAD AXE        PTCLDY    49  48  95 CALM      30.19R
CARO             N/A     51  50  99 CALM      30.18R FOG
DETROIT CITY   CLEAR     56  53  90 CALM      30.20R
DETROIT        PTCLDY    59  55  87 CALM      30.20R
FLINT          PTCLDY    55  53  93 S6        30.19S
GROSSE ILE     CLEAR     55  54  94 CALM      30.19R
HILLSDALE      FOG       51  51 100 CALM      30.21R VSB 1/4
HOWELL         CLEAR     54  53  97 CALM      30.20R FOG

CITY           SKY/WX    TMP DP  RH WIND       PRES   REMARKS
JACKSON        CLEAR     51  50  96 W3        30.21R
LAMBERTVILLE   CLEAR     54  52  94 CALM      30.20R FOG
LANSING        CLEAR     53  52  96 CALM      30.20R
LAPEER         MOCLDY    52  51  96 CALM      30.20R
MASON            N/A     49  49  98 CALM      30.21R FOG
MONROE         CLEAR     55  55 100 CALM      30.19R
MT. CLEMENS    CLEAR     55  54  95 CALM      30.18R
PONTIAC        CLEAR     55  53  93 CALM      30.19R
PORT HOPE        N/A     54  51  90 CALM      30.16R
PORT HURON     FOG       50  50 100 CALM      30.20R VSB 1
TRI CITIES     PTCLDY    58  55  90 S5        30.18R
MIDLAND        FAIR      54  53  96 CALM      30.17R
TROY           FAIR      58  57  94 CALM      30.22R
SAGINAW HB     CLEAR     55  55 100 S6        30.17S
$$
MIZ043>046-050>051-056>058-064>065-071>073-077>080-281100-
SOUTHWEST LOWER MICHIGAN

CITY           SKY/WX    TMP DP  RH WIND       PRES   REMARKS
BATTLE CREEK   CLEAR     54  52  93 S6        30.21R
BENTON HARBOR  CLEAR     50  50 100 CALM      30.18R
BIG RAPIDS     CLOUDY    55  53  91 SE6       30.17R
COLDWATER      FOG       49  49  99 CALM      30.21R VSB 1/4
FREMONT        FAIR      52  51  98 CALM      30.18R
HOLLAND        CLEAR     54  52  93 CALM      30.18R
GRAND RAPIDS   PTCLDY    52  51  97 NE6       30.19R
IONIA          FAIR      54  53  97 SW6       30.18S FOG
KALAMAZOO      CLEAR     54  52  93 S3        30.21R
LUDINGTON      PTCLDY    57  53  84 CALM      30.16R
MARSHALL       FOG       52  52  97 CALM      30.21R VSB 3/4
MOUNT PLEASANT PTCLDY    57  54  88 CALM      30.17R
MUSKEGON       MOCLDY    54  52  93 CALM      30.18R
SOUTH HAVEN    CLEAR     51  50  97 CALM      30.19R
$$
MIZ016>042-281100-
NORTHERN LOWER MICHIGAN

CITY           SKY/WX    TMP DP  RH WIND       PRES   REMARKS
ALPENA         CLEAR     53  50  89 SW3       30.16R
BEAVER ISLAND  FOG       45  44  97 CALM      30.15R VSB 1
BELLAIRE       CLEAR     51  49  96 CALM      30.14S
CADILLAC       CLEAR     54  53  97 S3        30.16R
CHARLEVOIX     CLEAR     52  52  99 CALM      30.17R
FRANKFORT      CLEAR     58  49  74 NW5       30.15R
GAYLORD        CLEAR     53  53 100 CALM      30.15R
GRAYLING       CLEAR     46  46 100 CALM      30.16R FOG
HARBOR SPRINGS FOG       51  51  99 CALM      30.14R VSB 3/4
HOUGHTON LAKE  MOCLDY    55  53  93 S5        30.17R
MANISTEE       PTCLDY    54  48  82 CALM      30.16R
OSCODA         PTCLDY    52  51  97 SW3       30.16R
PELLSTON       CLEAR     49  48  97 CALM      30.14R
ROGERS CITY    PTCLDY    55  53  92 S3        30.15R
TRAVERSE CITY  CLEAR     55  54  96 CALM      30.13R
$$
MIZ007>008-015-281100-
EASTERN UPPER MICHIGAN

CITY           SKY/WX    TMP DP  RH WIND       PRES   REMARKS
KINROSS        CLEAR     48  46  93 CALM      30.13R
MACKINAC ISLAN PTCLDY    51  50  97 W7        30.13R
NEWBERRY       FOG       49  49  99 N10       30.14R VSB 1/4
S. S. MARIE    CLOUDY    50  49  96 CALM      30.13R FOG
MUNISING         N/A     45  43  93 NW7       30.14R
$$
MIZ004>006-011>014-085-281100-
CENTRAL UPPER MICHIGAN

CITY           SKY/WX    TMP DP  RH WIND       PRES   REMARKS
MANISTIQUE     FOG       48  47  97 CALM      30.13R VSB 1/4
ESCANABA       CLOUDY    54  52  94 NE7       30.12R
MENOMINEE        N/A     52  48  87 CALM      30.11S VSB 1/4
SAWYER-GWINN   FOG       43  42  96 NE7       30.13S VSB 3/4
$$
MIZ001>003-009>011-084-281100-
WESTERN UPPER MICHIGAN

CITY           SKY/WX    TMP DP  RH WIND       PRES   REMARKS
IRON MOUNTAIN  CLEAR     48  46  93 CALM      30.11R
HOUGHTON       CLOUDY    45  42  89 E10       30.14R
COPPER HARBOR    N/A     45  40  82 VRB3      30.16R
IRONWOOD       CLEAR     48  48 100 E3        30.06S
$$

ABBREVIATIONS USED IN REMARKS
   TC - TEMPERATURE IN CELSIUS
  WCI - WIND CHILL INDEX
   HX - HEAT INDEX
  VSB - VISIBILITY



USA.gov is the U.S. government's official web portal to all federal, state and local government web resources and services.